Flag for U.S.A. Weather past 2 weeks in Roanoke, Virginia, U.S.A.

Now
34 °F

Overcast.


Feels Like: 30 °F
Forecast: 22 / 43 °F
Wind: 5 mph from Southeast

Location: Roanoke Regional Airport

Current Time: Mar 1, 2015 at 3:24:42 PM

Latest Report: Mar 1, 2015 at 2:54 PM


Visibility: 10 mi

Pressure: 30.41 "Hg

Humidity: 67%

Dew point: 24 °F

Location of RoanokeLocation

Historic Weather in Roanoke — Graph

°F

Roanoke temperature yesterday

Maximum temperature yesterday: 32 °F (at 4:54 PM)
Minimum temperature yesterday: 17 °F (at 4:54 AM)
Average temperature yesterday: 25 °F

Past Weeks' High & Low Weather Summary

 TemperatureHumidityPressure
High51 °F (Feb 22, 2:54 PM)96% (Feb 21, 11:54 PM)30.82 "Hg (Feb 21, 11:54 PM)
Low1 °F (Feb 20, 5:54 AM)27% (Feb 20, 4:54 PM)29.61 "Hg (Feb 14, 3:54 PM)
Average23 °F58%30.20 "Hg
* Reported Feb 14 1:54 PM — Mar 1 1:54 PM, Roanoke, Weather by CustomWeather, © 2015

Note: Actual official high and low records may vary slightly from our data, if they occured in-between our weather recording intervals... More about our weather records

Advertising

Roanoke weather history for previous 24 hours

 ConditionsComfort  
Time TempWeatherWind HumidityBarometerVisibility
1:54 PM
Sun, Mar 1
33 °FPartly sunny.5 mph56%30.45 "Hg10 mi
12:54 PM32 °FOvercast.3 mph52%30.50 "Hg10 mi
11:54 AM30 °FOvercast.No wind54%30.55 "Hg10 mi
10:54 AM30 °FMostly cloudy.3 mph54%30.58 "Hg10 mi
9:54 AM29 °FMostly cloudy.3 mph54%30.59 "Hg10 mi
8:54 AM28 °FOvercast.5 mph53%30.61 "Hg10 mi
7:54 AM28 °FOvercast.6 mph56%30.61 "Hg10 mi
6:54 AM28 °FOvercast.3 mph56%30.62 "Hg10 mi
5:54 AM28 °FOvercast.No wind53%30.63 "Hg10 mi
4:54 AM28 °FOvercast.No wind49%30.62 "Hg10 mi
3:54 AM27 °FPassing clouds.No wind51%30.63 "Hg10 mi
2:54 AM27 °FOvercast.No wind53%30.66 "Hg10 mi
1:54 AM27 °FOvercast.5 mph55%30.68 "Hg10 mi
12:54 AM26 °FPassing clouds.6 mph57%30.69 "Hg10 mi
11:54 PM
Sat, Feb 28
27 °FPassing clouds.5 mph55%30.72 "Hg10 mi
10:54 PM27 °FClear.7 mph55%30.73 "Hg10 mi
9:54 PM28 °FPassing clouds.7 mph53%30.73 "Hg10 mi
8:54 PM30 °FOvercast.8 mph49%30.73 "Hg10 mi
7:54 PM31 °FOvercast.7 mph49%30.73 "Hg10 mi
6:54 PM31 °FOvercast.8 mph49%30.71 "Hg10 mi
5:54 PM31 °FOvercast.8 mph47%30.71 "Hg10 mi
4:54 PM32 °FPartly sunny.7 mph43%30.72 "Hg10 mi
3:54 PM31 °FScattered clouds.6 mph43%30.71 "Hg10 mi
Weather by CustomWeather, © 2015

See weather overviewHow to use our weather pages